TimeMDT,TemperatureF,Dew PointF,Humidity,Sea Level PressureIn,VisibilityMPH,Wind Direction,Wind SpeedMPH,Gust SpeedMPH,PrecipitationIn,Events,Conditions,WindDirDegrees,DateUTC
5:00 AM,48.2,35.6,62,30.09,15.0,West,4.6,-,N/A,,Scattered Clouds,270,2013-10-06 11:00:00
6:00 AM,44,35,63,30.09,15,West,4.6,,,,Partly Cloudy,280,2013-10-06 12:00:00
6:00 AM,44.6,35.6,71,30.09,15.0,WSW,8.1,-,N/A,,Scattered Clouds,250,2013-10-06 12:00:00
7:00 AM,44.6,35.6,71,30.10,15.0,NNW,3.5,-,N/A,,Scattered Clouds,330,2013-10-06 13:00:00
8:00 AM,41.0,33.8,76,30.11,30.0,NW,5.8,-,N/A,,Mostly Cloudy,320,2013-10-06 14:00:00
9:00 AM,41.0,35.6,81,30.12,30.0,East,3.5,-,N/A,,Mostly Cloudy,80,2013-10-06 15:00:00
10:00 AM,42.8,37.4,81,30.11,30.0,Variable,2.3,-,N/A,,Mostly Cloudy,0,2013-10-06 16:00:00
11:00 AM,44.6,39.2,81,30.09,30.0,Variable,2.3,-,N/A,,Mostly Cloudy,0,2013-10-06 17:00:00
12:00 PM,46,39,68,30.10,28,SSW,3.5,,,,Scattered Clouds,200,2013-10-06 18:00:00
12:00 PM,46.4,39.2,76,30.10,30.0,SSW,3.5,-,N/A,,Mostly Cloudy,200,2013-10-06 18:00:00
1:00 PM,48.2,41.0,76,30.06,30.0,South,5.8,-,N/A,,Mostly Cloudy,180,2013-10-06 19:00:00
2:00 PM,51.8,42.8,71,30.04,30.0,SSW,9.2,-,N/A,,Mostly Cloudy,210,2013-10-06 20:00:00
3:00 PM,57.2,42.8,59,29.99,30.0,SW,9.2,-,N/A,,Mostly Cloudy,220,2013-10-06 21:00:00
4:00 PM,60.8,42.8,52,29.97,30.0,SSW,4.6,-,N/A,,Mostly Cloudy,210,2013-10-06 22:00:00
5:00 PM,62.6,39.2,42,29.96,30.0,West,16.1,-,N/A,,Mostly Cloudy,270,2013-10-06 23:00:00
6:00 PM,63,40,31,29.96,28,West,11.5,,,,Scattered Clouds,270,2013-10-07 00:00:00
6:00 PM,62.6,39.2,42,29.96,30.0,West,11.5,18.4,N/A,,Mostly Cloudy,270,2013-10-07 00:00:00
7:00 PM,57.2,39.2,51,29.96,25.0,West,5.8,-,N/A,,Mostly Cloudy,270,2013-10-07 01:00:00
8:00 PM,53.6,37.4,54,29.96,15.0,SSE,5.8,-,N/A,,Mostly Cloudy,150,2013-10-07 02:00:00
9:00 PM,48.2,37.4,66,29.94,15.0,SSW,4.6,-,N/A,,Mostly Cloudy,210,2013-10-07 03:00:00
10:00 PM,48.2,35.6,62,29.85,15.0,West,4.6,-,N/A,,Mostly Cloudy,270,2013-10-07 04:00:00